Regional Weather Roundup
Issued by NWS

Home | Current Version | Previous Version | Text Only | Print | Product List | Glossary On
Versions: 1 2 3 4 5 6 7 8 9 10 11 12 13 14 15 16 17 18 19 20 21 22 23 24 25 26 27 28 29 30 31 32 33 34 35 36 37 38 39 40 41 42 43 44 45 46 47 48 49 50
000
ASUS44 KFWD 282110
RWRTX
NORTH TEXAS HOURLY WEATHER ROUNDUP
NATIONAL WEATHER SERVICE FORT WORTH TX
300 PM CST FRI NOV 28 2014

NOTE: "FAIR" INDICATES FEW OR NO CLOUDS BELOW 12,000 FEET WITH NO
SIGNIFICANT WEATHER AND/OR OBSTRUCTIONS TO VISIBILITY.

TXZ118-119-282200-
DALLAS/FORT WORTH METROPLEX

CITY           SKY/WX    TMP DP  RH WIND       PRES   REMARKS
DFW AIRPORT    MOSUNNY   68  49  50 S23       30.03F
DALLAS LOVE    MOSUNNY   68  49  50 SW14G24   30.05F
FTW MEACHAM    SUNNY     71  49  45 S16G24    30.03F
DAL-EXECUTIVE  SUNNY     70  49  47 S12G22    30.05F
FTW-ALLIANCE   MOSUNNY   69  47  45 S15G24    30.03F
FTW-SPINKS     SUNNY     72  48  43 S16G28    30.07F
ARLINGTON      SUNNY     71  48  43 S15G26    30.05F
ADDISON        SUNNY     68  48  49 S13G31    30.06
MESQUITE       SUNNY     68  48  49 S22G29    30.08F
LANCASTER      SUNNY     68  47  47 S16G24    30.08F
$$

TXZ091>094-102>105-117-120-121-131>134-282200-
NORTH CENTRAL TEXAS

CITY           SKY/WX    TMP DP  RH WIND       PRES   REMARKS
SHRMAN/DENISON SUNNY     68  50  52 S23G29    30.03F
BOWIE          SUNNY     68  45  42 S13G23    30.00F
BRIDGEPORT     SUNNY     71  47  43 S15G23    30.03F
DECATUR        SUNNY     69  46  43 S15       30.02F
DENTON         SUNNY     69  47  45 S21       30.03F
MCKINNEY       SUNNY     69  48  47 S18       30.04F
GREENVILLE     SUNNY     68  46  45 S21G26    30.07F
ROCKWALL       SUNNY     68  50  51 S24G33    30.05F
TERRELL        SUNNY     70  50  49 S22G30    30.08F
WAXAHACHIE     SUNNY     68  52  56 S21G26    30.09F
CLEBURNE       SUNNY     70  48  46 S16G24    30.07F
GRANBURY       SUNNY     72  49  44 S15G22    30.05F
$$

TXZ083>090-098>101-113>116-127>130-139>142-154-155-282200-
WESTERN NORTH TEXAS

CITY           SKY/WX    TMP DP  RH WIND       PRES   REMARKS
WICHITA FALLS  SUNNY     72  44  36 S20G29    29.94F
WF-KICKAPOO    SUNNY     72  41  32 S16       29.96F
VERNON         SUNNY     75  36  23 SW21      29.91F
ABILENE        SUNNY     72  43  35 SW16      30.02F
ABILENE-DYESS  SUNNY     73  43  34 SW15      30.01F
BRECKENRIDGE   SUNNY     74  42  32 SW18      30.01F HAZE
GRAHAM         SUNNY     73  47  39 S15G21    29.98F
MINERAL WELLS  SUNNY     71  47  42 S14G23    30.01F
STEPHENVILLE   SUNNY     70  46  42 SW15      30.08F
COMANCHE       SUNNY     71  48  43 SW16G26   30.07F
BROWNWOOD      SUNNY     72  45  37 SW18G24   30.06F
COLEMAN        SUNNY     71  46  41 SW14G21   30.06F
BRADY          SUNNY     72  41  33 S14       30.08F
$$

TXZ143>147-156>162-174-175-282200-
CENTRAL TEXAS

CITY           SKY/WX    TMP DP  RH WIND       PRES   REMARKS
WACO           SUNNY     71  49  45 SW20G29   30.10F
WACO-TSTC      SUNNY     72  50  46 S24G30    30.10
WACO-MCGREGOR  SUNNY     72  48  43 SW18G26   30.11F
HILLSBORO      SUNNY     70  49  47 S22G30    30.09F
CORSICANA      SUNNY     70  50  49 S21G30    30.11F
MEXIA          MOSUNNY   69  52  54 SW18G24   30.12F
HEARNE         PTSUNNY   73  54  51 S16G22    30.15F
CAMERON        MOSUNNY   72  52  48 S12G22    30.13F
TEMPLE         SUNNY     72  48  43 S20       30.10F
KILLEEN        SUNNY     70  46  42 SW12G26   30.10F
KILLEEN-SKYLRK SUNNY     72  46  40 S17G23    30.08F
FORT HOOD      SUNNY     74  47  38 S15G23    30.10F
GATESVILLE     SUNNY     72  48  43 S18G24    30.11F
HAMILTON       SUNNY     72  47  41 S15G24    30.09F
LAMPASAS       SUNNY     71  49  46 SW14G21   30.09F
$$

TXZ095>097-106>112-122>126-135>138-148>153-164>167-282200-
EAST TEXAS

CITY           SKY/WX    TMP DP  RH WIND       PRES   REMARKS
PARIS          SUNNY     66  45  45 S21G26    30.08F
SULPHUR SPRNGS SUNNY     68  47  47 S16G23    30.10F
MOUNT PLEASANT SUNNY    N/A N/A N/A S13G22    30.12F
MINEOLA        SUNNY     66  46  48 S8        30.12F
TYLER          MOSUNNY   68  49  50 S17       30.12F
LONGVIEW       SUNNY     67  48  50 S12G20    30.13F
MARSHALL       SUNNY     68  47  46 S10       30.16F
ATHENS         MOSUNNY   68  50  52 S6G18     30.11F
PALESTINE      MOSUNNY   69  51  52 S8        30.15F
JACKSONVILLE   MOSUNNY   66  50  55 S10       30.17F
HENDERSON      SUNNY     67  49  51 S9        30.16F
NACOGDOCHES    SUNNY     68  48  49 SW9       30.17F
LUFKIN         SUNNY     72  49  44 S12G22    30.18F
$$

SUPPLEMENTAL OBSERVATIONS (CENTRAL)

CITY           SKY/WX    TMP DP  RH WIND       PRES   REMARKS
PAT MAYSE LAKE   N/A     63  43  48 SE22        N/A
GREENVILLE       N/A     70  48  46 S20G26      N/A
CEDAR HILL       N/A     70  50  49 S10G22      N/A
MCGREGOR         N/A     72  48  43 S13G26      N/A
$$

SUPPLEMENTAL OBSERVATIONS (WEST)

CITY           SKY/WX    TMP DP  RH WIND       PRES   REMARKS
MILLERS CREEK    N/A     73  48  40 SW17G24     N/A
GRANBURY         N/A     72  46  40 S16G23      N/A
HAMBY            N/A     72  41  33 SW22G30     N/A
IVIE RESERVOIR   N/A     73  37  27 SW16G25     N/A
COLORADO BEND    N/A     72  46  40 SW12G21     N/A
$$

SUPPLEMENTAL OBSERVATIONS (EAST)

CITY           SKY/WX    TMP DP  RH WIND       PRES   REMARKS
LUFKIN           N/A     72  50  46 MISG        N/A
N SABINE NF      N/A     66  46  48 MISG        N/A
$$

SUPPLEMENTAL OBSERVATIONS ARE A COLLECTION OF AUTOMATED INSTRUMENTS
THAT ARE MAINTAINED BY A VARIETY OF FEDERAL AND STATE AGENCIES.
CERTAIN ELEMENTS...SUCH AS HUMIDITY VALUES AND SUSTAINED WIND
SPEEDS...MAY BE APPROXIMATED.




USA.gov is the U.S. government's official web portal to all federal, state and local government web resources and services.